MBJ YMEN-YSWG

Flight info

Callsign MBJ
Flight time N/A
Altitude 29000
Route DOSEL W569 BOGES W654 WG
Aircraft C25C/M-SDE2E3FGHRWXY/LB1

Departure

Time 2026-04-16 07:25
Airport Melbourne Essendon Airport (YMEN)

Arrival

Time N/A
Airport Wagga Wagga Airport (YSWG)
Time Latitude Longitude Altitude Speed Heading
2026-04-16 07:08 -37.72846 144.89509 268 ft 0 kts 189°
2026-04-16 07:20 -37.72847 144.89509 268 ft 1 kts 189°
2026-04-16 07:20 -37.72859 144.89511 268 ft 3 kts 163°
2026-04-16 07:20 -37.72888 144.89539 268 ft 8 kts 130°
2026-04-16 07:21 -37.72913 144.89623 268 ft 13 kts 97°
2026-04-16 07:21 -37.72920 144.89740 268 ft 13 kts 99°
2026-04-16 07:21 -37.72935 144.89837 268 ft 10 kts 98°
2026-04-16 07:21 -37.72943 144.89918 269 ft 8 kts 97°
2026-04-16 07:22 -37.72952 144.89975 269 ft 5 kts 111°
2026-04-16 07:22 -37.72973 144.89998 268 ft 4 kts 161°
2026-04-16 07:22 -37.73015 144.90003 265 ft 8 kts 178°
2026-04-16 07:22 -37.73087 144.90006 260 ft 12 kts 178°
2026-04-16 07:23 -37.73169 144.90011 261 ft 11 kts 177°
2026-04-16 07:23 -37.73236 144.90015 260 ft 10 kts 178°
2026-04-16 07:23 -37.73315 144.90019 256 ft 7 kts 179°
2026-04-16 07:23 -37.73362 144.90030 253 ft 5 kts 145°
2026-04-16 07:24 -37.73365 144.90033 253 ft 0 kts 140°
2026-04-16 07:24 -37.73381 144.90107 250 ft 19 kts 76°
2026-04-16 07:25 -37.73228 144.90133 258 ft 47 kts 357°
2026-04-16 07:25 -37.72611 144.90103 267 ft 129 kts 357°
2026-04-16 07:25 -37.71547 144.90048 666 ft 157 kts 358°
2026-04-16 07:25 -37.70502 144.90038 1699 ft 152 kts 358°
2026-04-16 07:26 -37.69412 144.90098 2366 ft 170 kts 14°
2026-04-16 07:26 -37.68435 144.91127 2720 ft 206 kts 63°
2026-04-16 07:26 -37.68221 144.93025 3069 ft 236 kts 95°
2026-04-16 07:26 -37.68042 144.95115 3681 ft 246 kts 68°
2026-04-16 07:27 -37.67100 144.96899 4476 ft 248 kts 38°
2026-04-16 07:27 -37.65679 144.98133 5313 ft 249 kts 32°
2026-04-16 07:27 -37.64219 144.99327 6135 ft 251 kts 32°
2026-04-16 07:27 -37.62748 145.00582 6816 ft 261 kts 33°
2026-04-16 07:28 -37.61179 145.01894 7305 ft 278 kts 32°
2026-04-16 07:28 -37.59536 145.03256 8212 ft 284 kts 32°
2026-04-16 07:28 -37.57886 145.04634 9299 ft 286 kts 32°
2026-04-16 07:28 -37.56217 145.06032 10258 ft 291 kts 32°
2026-04-16 07:29 -37.54476 145.07497 10754 ft 314 kts 33°
2026-04-16 07:29 -37.52563 145.09108 10978 ft 344 kts 33°
2026-04-16 07:29 -37.50503 145.10846 11188 ft 370 kts 33°
2026-04-16 07:29 -37.48346 145.12669 11689 ft 384 kts 33°
2026-04-16 07:30 -37.46082 145.14585 12465 ft 389 kts 33°
2026-04-16 07:30 -37.43853 145.16471 13240 ft 394 kts 33°
2026-04-16 07:30 -37.41568 145.18403 13961 ft 399 kts 33°
2026-04-16 07:30 -37.39251 145.20360 14668 ft 403 kts 33°
2026-04-16 07:31 -37.36913 145.22334 15381 ft 406 kts 33°
2026-04-16 07:31 -37.34554 145.24323 16078 ft 410 kts 33°
2026-04-16 07:31 -37.32165 145.26336 16748 ft 414 kts 33°
2026-04-16 07:31 -37.29761 145.28359 17400 ft 417 kts 33°
2026-04-16 07:32 -37.27344 145.30393 18036 ft 421 kts 33°
2026-04-16 07:32 -37.24901 145.32448 18630 ft 425 kts 33°
2026-04-16 07:32 -37.22433 145.34522 19223 ft 429 kts 33°
2026-04-16 07:32 -37.19945 145.36610 19805 ft 432 kts 33°
2026-04-16 07:33 -37.17437 145.38712 20388 ft 435 kts 33°
2026-04-16 07:33 -37.14991 145.40969 20926 ft 439 kts 39°
2026-04-16 07:33 -37.12670 145.43482 21422 ft 443 kts 41°
2026-04-16 07:33 -37.10366 145.46085 21837 ft 448 kts 41°
2026-04-16 07:34 -37.08047 145.48721 22306 ft 452 kts 41°
2026-04-16 07:34 -37.05705 145.51363 22778 ft 454 kts 41°
2026-04-16 07:34 -37.03369 145.53967 23242 ft 457 kts 41°
2026-04-16 07:34 -37.00979 145.56610 23686 ft 460 kts 41°
2026-04-16 07:35 -36.98568 145.59262 24121 ft 463 kts 40°
2026-04-16 07:35 -36.96140 145.61926 24581 ft 465 kts 40°
2026-04-16 07:35 -36.93700 145.64599 24978 ft 468 kts 40°
2026-04-16 07:35 -36.91242 145.67293 25345 ft 472 kts 40°
2026-04-16 07:36 -36.88766 145.70005 25732 ft 474 kts 40°
2026-04-16 07:36 -36.86277 145.72729 26104 ft 477 kts 40°
2026-04-16 07:36 -36.83772 145.75451 26458 ft 479 kts 40°
2026-04-16 07:36 -36.81229 145.78154 26780 ft 482 kts 39°
2026-04-16 07:37 -36.78657 145.80856 27080 ft 484 kts 39°
2026-04-16 07:37 -36.76075 145.83557 27427 ft 485 kts 39°
2026-04-16 07:37 -36.73492 145.86257 27911 ft 483 kts 39°
2026-04-16 07:37 -36.70927 145.88942 28454 ft 480 kts 39°
2026-04-16 07:38 -36.68376 145.91614 28933 ft 479 kts 39°
2026-04-16 07:38 -36.65821 145.94292 28984 ft 481 kts 39°